Overview Statistics Trail Chart Weather Telemetry Raw packets
 

This is the latest recevied weather packets stored in our database for station/object KB0BDN-13. If no packets are shown the sender has not sent any weather packets the latest 10 day(s).

<< 19 20 21 22 23 24 25 >>
Time Temp. Humidity Pressure Rain* Wind** Luminosity Snow
1788447551 21.11° C 75% 1008.8 hPa 0 mm - - -
1788445897 19.44° C 82% 1008.6 hPa 0 mm - - -
1788445751 18.89° C 84% 1008.5 hPa 0 mm - - -
1788444997 17.78° C 92% 1008.5 hPa 0 mm - - -
1788444850 17.78° C 94% 1008.8 hPa 0 mm - - -
1788444097 16.11° C 99% 1008.8 hPa 0 mm - - -
1788443949 15.56° C 100% 1008.8 hPa 0 mm - - -
1788443197 15° C 99% 1008.8 hPa 0 mm - - -
1788443050 14.44° C 100% 1008.7 hPa 0 mm - - -
1788442297 14.44° C 99% 1008.7 hPa 0 mm - - -
1788442150 13.89° C 99% 1008.8 hPa 0 mm - - -
1788441396 13.89° C 99% 1008.8 hPa 0 mm - - -
1788441254 13.89° C 99% 1008.6 hPa 0 mm - - -
1788440495 13.33° C 99% 1008.6 hPa 0 mm - - -
1788440353 12.78° C 99% 1008.6 hPa 0 mm - - -
1788439595 12.22° C 99% 1008.6 hPa 0 mm - - -
1788439473 12.22° C 99% 1008.6 hPa 0 mm - - -
1788438695 11.11° C 99% 1008.6 hPa 0 mm - - -
1788437795 10.56° C 99% 1008.6 hPa 0 mm - - -
1788437653 10.56° C 99% 1008.5 hPa 0 mm - - -
1788436895 10° C 98% 1008.5 hPa 0 mm - - -
1788435995 8.89° C 98% 1008.4 hPa 0 mm - - -
1788435853 8.89° C 98% 1008.3 hPa 0 mm - - -
1788435095 8.89° C 98% 1008.3 hPa 0 mm - - -
1788434953 8.89° C 98% 1008.1 hPa 0 mm - - -

* Rain latest hour (hover to see other rain measurements)
** Current wind speed in m/s (hover to see current wind gust speed)